Time,TemperatureF,DewpointF,PressureIn,WindDirection,WindDirectionDegrees,WindSpeedMPH,WindSpeedGustMPH,Humidity,HourlyPrecipIn,Conditions,Clouds,dailyrainin,SoftwareType,DateUTC
2013-08-26 00:02:00,84.6,66.0,30.09,SE,137,7.0,9.0,54,0.00,,,0.00,meteohub,2013-08-26 05:02:00,
2013-08-26 00:07:00,84.6,66.0,30.09,SE,136,7.0,11.0,54,0.00,,,0.00,meteohub,2013-08-26 05:07:00,
2013-08-26 00:12:00,84.6,66.0,30.09,SE,141,4.0,11.0,54,0.00,,,0.00,meteohub,2013-08-26 05:12:00,
2013-08-26 00:17:00,84.4,65.8,30.09,SE,131,3.0,11.0,54,0.00,,,0.00,meteohub,2013-08-26 05:17:00,
2013-08-26 00:23:00,84.4,65.8,30.09,SSE,157,7.0,11.0,54,0.00,,,0.00,meteohub,2013-08-26 05:23:00,
2013-08-26 00:29:00,84.2,66.2,30.09,SSE,157,2.0,9.0,55,0.00,,,0.00,meteohub,2013-08-26 05:29:00,
2013-08-26 00:35:00,84.0,66.2,30.09,SSE,157,2.0,9.0,55,0.00,,,0.00,meteohub,2013-08-26 05:35:00,
2013-08-26 00:40:00,83.8,66.0,30.09,SSE,162,2.0,10.0,55,0.00,,,0.00,meteohub,2013-08-26 05:40:00,
2013-08-26 00:46:00,83.8,66.4,30.10,SE,144,1.0,10.0,56,0.00,,,0.00,meteohub,2013-08-26 05:46:00,
2013-08-26 00:51:00,83.7,66.4,30.09,SE,141,4.0,8.0,56,0.00,,,0.00,meteohub,2013-08-26 05:51:00,
2013-08-26 00:57:00,83.5,66.6,30.09,SSE,161,3.0,8.0,57,0.00,,,0.00,meteohub,2013-08-26 05:57:00,
2013-08-26 01:02:00,83.1,66.4,30.10,SSE,156,4.0,8.0,57,0.00,,,0.00,meteohub,2013-08-26 06:02:00,
2013-08-26 01:07:00,83.1,66.7,30.10,SSE,159,3.0,7.0,58,0.00,,,0.00,meteohub,2013-08-26 06:07:00,
2013-08-26 01:12:00,82.9,66.6,30.10,SSE,165,2.0,6.0,58,0.00,,,0.00,meteohub,2013-08-26 06:12:00,
2013-08-26 01:17:00,82.8,66.6,30.10,SSE,160,5.0,5.0,58,0.00,,,0.00,meteohub,2013-08-26 06:17:00,
2013-08-26 01:22:00,82.6,66.7,30.10,SSE,160,2.0,5.0,59,0.00,,,0.00,meteohub,2013-08-26 06:22:00,
2013-08-26 01:27:00,82.4,67.1,30.10,South,171,2.0,5.0,60,0.00,,,0.00,meteohub,2013-08-26 06:27:00,
2013-08-26 01:32:00,82.2,66.9,30.10,South,172,0.0,5.0,60,0.00,,,0.00,meteohub,2013-08-26 06:32:00,
2013-08-26 01:37:00,82.0,67.3,30.10,South,169,1.0,5.0,61,0.00,,,0.00,meteohub,2013-08-26 06:37:00,
2013-08-26 01:42:00,81.9,67.1,30.10,South,169,1.0,4.0,61,0.00,,,0.00,meteohub,2013-08-26 06:42:00,
2013-08-26 01:47:00,81.7,67.5,30.10,South,169,0.0,4.0,62,0.00,,,0.00,meteohub,2013-08-26 06:47:00,
2013-08-26 01:52:00,81.7,67.5,30.10,South,169,0.0,4.0,62,0.00,,,0.00,meteohub,2013-08-26 06:52:00,
2013-08-26 01:57:00,81.3,67.5,30.10,South,169,1.0,4.0,63,0.00,,,0.00,meteohub,2013-08-26 06:57:00,
2013-08-26 02:02:00,81.1,67.3,30.10,South,172,1.0,4.0,63,0.00,,,0.00,meteohub,2013-08-26 07:02:00,
2013-08-26 02:07:00,81.1,67.8,30.10,South,172,0.0,5.0,64,0.00,,,0.00,meteohub,2013-08-26 07:07:00,
2013-08-26 02:12:00,81.0,67.6,30.09,South,172,1.0,5.0,64,0.00,,,0.00,meteohub,2013-08-26 07:12:00,
2013-08-26 02:17:00,80.8,68.0,30.09,South,172,0.0,3.0,65,0.00,,,0.00,meteohub,2013-08-26 07:17:00,
2013-08-26 02:22:00,80.6,67.8,30.09,South,172,1.0,2.0,65,0.00,,,0.00,meteohub,2013-08-26 07:22:00,
2013-08-26 02:27:00,80.4,68.0,30.09,South,172,0.0,3.0,66,0.00,,,0.00,meteohub,2013-08-26 07:27:00,
2013-08-26 02:32:00,80.2,67.8,30.10,South,171,2.0,3.0,66,0.00,,,0.00,meteohub,2013-08-26 07:32:00,
2013-08-26 02:37:00,80.1,68.2,30.09,SSE,163,0.0,5.0,67,0.00,,,0.00,meteohub,2013-08-26 07:37:00,
2013-08-26 02:42:00,80.1,68.5,30.10,SSE,163,0.0,5.0,68,0.00,,,0.00,meteohub,2013-08-26 07:42:00,
2013-08-26 02:47:00,79.9,68.4,30.10,SSE,163,0.0,5.0,68,0.00,,,0.00,meteohub,2013-08-26 07:47:00,
2013-08-26 02:52:00,79.9,68.4,30.10,SSE,163,0.0,2.0,68,0.00,,,0.00,meteohub,2013-08-26 07:52:00,
2013-08-26 02:57:00,79.7,68.2,30.09,SSE,163,0.0,2.0,68,0.00,,,0.00,meteohub,2013-08-26 07:57:00,
2013-08-26 03:02:00,79.5,68.5,30.10,SSE,163,0.0,2.0,69,0.00,,,0.00,meteohub,2013-08-26 08:02:00,
2013-08-26 03:07:00,79.5,68.5,30.10,SSE,163,1.0,3.0,69,0.00,,,0.00,meteohub,2013-08-26 08:07:00,
2013-08-26 03:12:00,79.3,68.7,30.10,SSE,163,0.0,3.0,70,0.00,,,0.00,meteohub,2013-08-26 08:12:00,
2013-08-26 03:17:00,79.3,68.7,30.10,SSE,163,0.0,3.0,70,0.00,,,0.00,meteohub,2013-08-26 08:17:00,
2013-08-26 03:22:00,79.2,68.5,30.10,SSE,163,1.0,3.0,70,0.00,,,0.00,meteohub,2013-08-26 08:22:00,
2013-08-26 03:27:00,79.2,68.9,30.10,SSE,163,1.0,2.0,71,0.00,,,0.00,meteohub,2013-08-26 08:27:00,
2013-08-26 03:32:00,79.0,68.7,30.10,SSE,163,1.0,2.0,71,0.00,,,0.00,meteohub,2013-08-26 08:32:00,
2013-08-26 03:37:00,78.8,68.5,30.10,SSE,163,1.0,2.0,71,0.00,,,0.00,meteohub,2013-08-26 08:37:00,
2013-08-26 03:42:00,78.6,68.4,30.10,SSE,163,3.0,3.0,71,0.00,,,0.00,meteohub,2013-08-26 08:42:00,
2013-08-26 03:47:00,78.6,68.9,30.10,SSE,163,0.0,3.0,72,0.00,,,0.00,meteohub,2013-08-26 08:47:00,
2013-08-26 03:52:00,78.4,68.7,30.10,SSE,163,0.0,3.0,72,0.00,,,0.00,meteohub,2013-08-26 08:52:00,
2013-08-26 03:57:00,78.4,68.7,30.10,SSE,163,0.0,3.0,72,0.00,,,0.00,meteohub,2013-08-26 08:57:00,
2013-08-26 04:02:00,78.3,68.5,30.10,SSE,163,0.0,2.0,72,0.00,,,0.00,meteohub,2013-08-26 09:02:00,
2013-08-26 04:07:00,78.3,68.9,30.10,SSE,163,1.0,3.0,73,0.00,,,0.00,meteohub,2013-08-26 09:07:00,
2013-08-26 04:12:00,78.1,68.7,30.11,South,172,3.0,3.0,73,0.00,,,0.00,meteohub,2013-08-26 09:12:00,
2013-08-26 04:18:00,78.1,68.7,30.11,SSE,167,1.0,4.0,73,0.00,,,0.00,meteohub,2013-08-26 09:18:00,
2013-08-26 04:23:00,78.1,68.7,30.11,SSE,159,1.0,6.0,73,0.00,,,0.00,meteohub,2013-08-26 09:23:00,
2013-08-26 04:29:00,78.1,68.7,30.11,SSE,162,1.0,6.0,73,0.00,,,0.00,meteohub,2013-08-26 09:29:00,
2013-08-26 04:35:00,77.9,68.9,30.10,SSE,161,1.0,6.0,74,0.00,,,0.00,meteohub,2013-08-26 09:35:00,
2013-08-26 04:40:00,77.7,68.7,30.11,SSE,162,1.0,5.0,74,0.00,,,0.00,meteohub,2013-08-26 09:40:00,
2013-08-26 04:46:00,77.7,68.7,30.11,SSE,162,0.0,5.0,74,0.00,,,0.00,meteohub,2013-08-26 09:46:00,
2013-08-26 04:52:00,77.5,68.5,30.11,SSE,162,0.0,3.0,74,0.00,,,0.00,meteohub,2013-08-26 09:52:00,
2013-08-26 04:57:00,77.5,68.5,30.11,SSE,162,0.0,1.0,74,0.00,,,0.00,meteohub,2013-08-26 09:57:00,
2013-08-26 05:02:00,77.4,68.4,30.11,SSE,162,0.0,1.0,74,0.00,,,0.00,meteohub,2013-08-26 10:02:00,
2013-08-26 05:07:00,77.4,68.9,30.10,SSE,162,0.0,1.0,75,0.00,,,0.00,meteohub,2013-08-26 10:07:00,
2013-08-26 05:12:00,77.2,68.7,30.11,SSE,162,0.0,1.0,75,0.00,,,0.00,meteohub,2013-08-26 10:12:00,
2013-08-26 05:17:00,77.0,68.5,30.11,SSE,162,1.0,1.0,75,0.00,,,0.00,meteohub,2013-08-26 10:17:00,
2013-08-26 05:22:00,76.8,68.7,30.11,SSE,162,1.0,2.0,76,0.00,,,0.00,meteohub,2013-08-26 10:22:00,
2013-08-26 05:27:00,76.6,68.5,30.11,SSE,162,1.0,3.0,76,0.00,,,0.00,meteohub,2013-08-26 10:27:00,
2013-08-26 05:32:00,76.5,68.7,30.11,SSE,162,0.0,3.0,77,0.00,,,0.00,meteohub,2013-08-26 10:32:00,
2013-08-26 05:37:00,76.5,68.7,30.11,SSE,162,0.0,3.0,77,0.00,,,0.00,meteohub,2013-08-26 10:37:00,
2013-08-26 05:42:00,76.5,68.7,30.11,SSE,162,0.0,2.0,77,0.00,,,0.00,meteohub,2013-08-26 10:42:00,
2013-08-26 05:47:00,76.3,68.5,30.11,SSE,162,1.0,2.0,77,0.00,,,0.00,meteohub,2013-08-26 10:47:00,
2013-08-26 05:52:00,76.3,68.5,30.11,SSE,162,0.0,3.0,77,0.00,,,0.00,meteohub,2013-08-26 10:52:00,
2013-08-26 05:57:00,76.3,68.9,30.12,SSE,162,0.0,3.0,78,0.00,,,0.00,meteohub,2013-08-26 10:57:00,
2013-08-26 06:02:00,76.1,68.7,30.11,SSE,162,2.0,3.0,78,0.00,,,0.00,meteohub,2013-08-26 11:02:00,
2013-08-26 06:07:00,75.9,68.5,30.11,SSE,162,3.0,3.0,78,0.00,,,0.00,meteohub,2013-08-26 11:07:00,
2013-08-26 06:12:00,75.9,68.9,30.12,SSE,162,0.0,3.0,79,0.00,,,0.00,meteohub,2013-08-26 11:12:00,
2013-08-26 06:17:00,75.7,68.7,30.12,SSE,162,1.0,3.0,79,0.00,,,0.00,meteohub,2013-08-26 11:17:00,
2013-08-26 06:22:00,75.7,68.7,30.12,SSE,162,1.0,3.0,79,0.00,,,0.00,meteohub,2013-08-26 11:22:00,
2013-08-26 06:27:00,75.7,68.7,30.12,SSE,162,1.0,3.0,79,0.00,,,0.00,meteohub,2013-08-26 11:27:00,
2013-08-26 06:32:00,75.7,68.7,30.12,SSE,162,1.0,3.0,79,0.00,,,0.00,meteohub,2013-08-26 11:32:00,
2013-08-26 06:37:00,75.6,68.9,30.12,SSE,162,3.0,3.0,80,0.00,,,0.00,meteohub,2013-08-26 11:37:00,
2013-08-26 06:42:00,75.6,68.9,30.12,SSE,153,1.0,5.0,80,0.00,,,0.00,meteohub,2013-08-26 11:42:00,
2013-08-26 06:47:00,75.6,68.9,30.12,SSE,149,0.0,5.0,80,0.00,,,0.00,meteohub,2013-08-26 11:47:00,
2013-08-26 06:52:00,75.4,68.7,30.12,SSE,149,2.0,5.0,80,0.00,,,0.00,meteohub,2013-08-26 11:52:00,
2013-08-26 06:57:00,75.4,68.7,30.13,SSE,149,0.0,3.0,80,0.00,,,0.00,meteohub,2013-08-26 11:57:00,
2013-08-26 07:02:00,75.2,68.5,30.13,SSE,148,1.0,2.0,80,0.00,,,0.00,meteohub,2013-08-26 12:02:00,
2013-08-26 07:07:00,75.0,68.4,30.13,SE,144,1.0,2.0,80,0.00,,,0.00,meteohub,2013-08-26 12:07:00,
2013-08-26 07:12:00,75.0,68.7,30.13,SE,144,0.0,3.0,81,0.00,,,0.00,meteohub,2013-08-26 12:12:00,
2013-08-26 07:17:00,75.0,68.7,30.13,SE,144,0.0,3.0,81,0.00,,,0.00,meteohub,2013-08-26 12:17:00,
2013-08-26 07:22:00,75.0,68.7,30.13,SE,144,1.0,2.0,81,0.00,,,0.00,meteohub,2013-08-26 12:22:00,
2013-08-26 07:27:00,75.0,68.7,30.14,SE,144,0.0,2.0,81,0.00,,,0.00,meteohub,2013-08-26 12:27:00,
2013-08-26 07:32:00,75.2,68.9,30.14,SE,144,0.0,2.0,81,0.00,,,0.00,meteohub,2013-08-26 12:32:00,
2013-08-26 07:37:00,75.4,69.1,30.14,SE,144,0.0,2.0,81,0.00,,,0.00,meteohub,2013-08-26 12:37:00,
2013-08-26 07:42:00,75.6,68.9,30.14,ESE,121,2.0,3.0,80,0.00,,,0.00,meteohub,2013-08-26 12:42:00,
2013-08-26 07:47:00,75.7,69.1,30.14,ESE,123,1.0,4.0,80,0.00,,,0.00,meteohub,2013-08-26 12:47:00,
2013-08-26 07:52:00,75.9,68.9,30.14,ESE,122,2.0,4.0,79,0.00,,,0.00,meteohub,2013-08-26 12:52:00,
2013-08-26 07:57:00,76.1,69.1,30.14,SE,124,1.0,5.0,79,0.00,,,0.00,meteohub,2013-08-26 12:57:00,
2013-08-26 08:02:00,76.5,69.4,30.14,ESE,121,2.0,7.0,79,0.00,,,0.00,meteohub,2013-08-26 13:02:00,
2013-08-26 08:07:00,76.6,69.3,30.14,ESE,115,3.0,7.0,78,0.00,,,0.00,meteohub,2013-08-26 13:07:00,
2013-08-26 08:12:00,76.6,69.6,30.14,SE,131,2.0,8.0,79,0.00,,,0.00,meteohub,2013-08-26 13:12:00,
2013-08-26 08:17:00,77.0,69.6,30.14,SSE,149,4.0,8.0,78,0.00,,,0.00,meteohub,2013-08-26 13:17:00,
2013-08-26 08:22:00,77.4,69.6,30.14,ESE,122,4.0,8.0,77,0.00,,,0.00,meteohub,2013-08-26 13:22:00,
2013-08-26 08:27:00,77.5,69.8,30.14,SE,140,3.0,7.0,77,0.00,,,0.00,meteohub,2013-08-26 13:27:00,
2013-08-26 08:32:00,78.1,70.0,30.14,SE,136,2.0,7.0,76,0.00,,,0.00,meteohub,2013-08-26 13:32:00,
2013-08-26 08:37:00,78.6,70.0,30.14,SSE,164,7.0,9.0,75,0.00,,,0.00,meteohub,2013-08-26 13:37:00,
2013-08-26 08:42:00,79.0,70.0,30.14,SSE,160,7.0,9.0,74,0.00,,,0.00,meteohub,2013-08-26 13:42:00,
2013-08-26 08:47:00,79.2,70.2,30.14,SSE,148,6.0,13.0,74,0.00,,,0.00,meteohub,2013-08-26 13:47:00,
2013-08-26 08:52:00,79.2,70.2,30.15,SSE,150,7.0,13.0,74,0.00,,,0.00,meteohub,2013-08-26 13:52:00,
2013-08-26 08:57:00,79.3,70.0,30.15,SSE,157,7.0,13.0,73,0.00,,,0.00,meteohub,2013-08-26 13:57:00,
2013-08-26 09:02:00,79.7,69.8,30.15,SSE,157,8.0,12.0,72,0.00,,,0.00,meteohub,2013-08-26 14:02:00,
2013-08-26 09:07:00,80.1,70.2,30.15,SSE,150,3.0,12.0,72,0.00,,,0.00,meteohub,2013-08-26 14:07:00,
2013-08-26 09:12:00,80.6,70.0,30.15,South,169,8.0,12.0,70,0.00,,,0.00,meteohub,2013-08-26 14:12:00,
2013-08-26 09:17:00,80.8,70.2,30.15,SSE,165,10.0,14.0,70,0.00,,,0.00,meteohub,2013-08-26 14:17:00,
2013-08-26 09:22:00,81.1,70.0,30.15,SSE,164,8.0,14.0,69,0.00,,,0.00,meteohub,2013-08-26 14:22:00,
2013-08-26 09:27:00,81.1,70.0,30.15,SSE,151,6.0,14.0,69,0.00,,,0.00,meteohub,2013-08-26 14:27:00,
2013-08-26 09:32:00,81.7,70.2,30.15,South,184,3.0,14.0,68,0.00,,,0.00,meteohub,2013-08-26 14:32:00,
2013-08-26 09:37:00,81.9,70.3,30.15,SSE,153,3.0,14.0,68,0.00,,,0.00,meteohub,2013-08-26 14:37:00,
2013-08-26 09:42:00,81.7,69.6,30.15,SE,142,8.0,17.0,67,0.00,,,0.00,meteohub,2013-08-26 14:42:00,
2013-08-26 09:47:00,81.9,69.8,30.15,South,173,7.0,17.0,67,0.00,,,0.00,meteohub,2013-08-26 14:47:00,
2013-08-26 09:52:00,82.4,70.0,30.15,SSE,162,6.0,17.0,66,0.00,,,0.00,meteohub,2013-08-26 14:52:00,
2013-08-26 09:57:00,82.9,70.0,30.15,South,176,4.0,15.0,65,0.00,,,0.00,meteohub,2013-08-26 14:57:00,
2013-08-26 10:02:00,83.5,70.0,30.15,SSW,193,3.0,12.0,64,0.00,,,0.00,meteohub,2013-08-26 15:02:00,
2013-08-26 10:07:00,83.8,70.0,30.15,SE,134,2.0,12.0,63,0.00,,,0.00,meteohub,2013-08-26 15:07:00,
2013-08-26 10:12:00,83.7,69.8,30.15,ESE,107,11.0,13.0,63,0.00,,,0.00,meteohub,2013-08-26 15:12:00,
2013-08-26 10:17:00,83.8,70.0,30.15,SSE,165,7.0,13.0,63,0.00,,,0.00,meteohub,2013-08-26 15:17:00,
2013-08-26 10:22:00,84.0,69.6,30.14,SSE,160,10.0,13.0,62,0.00,,,0.00,meteohub,2013-08-26 15:22:00,
2013-08-26 10:27:00,84.0,69.6,30.14,SE,142,6.0,15.0,62,0.00,,,0.00,meteohub,2013-08-26 15:27:00,
2013-08-26 10:32:00,84.6,69.6,30.14,SE,125,10.0,15.0,61,0.00,,,0.00,meteohub,2013-08-26 15:32:00,
2013-08-26 10:37:00,85.1,69.6,30.14,South,173,7.0,15.0,60,0.00,,,0.00,meteohub,2013-08-26 15:37:00,
2013-08-26 10:42:00,85.6,69.6,30.14,South,188,8.0,15.0,59,0.00,,,0.00,meteohub,2013-08-26 15:42:00,
2013-08-26 10:47:00,85.8,69.3,30.14,SE,134,10.0,15.0,58,0.00,,,0.00,meteohub,2013-08-26 15:47:00,
2013-08-26 10:52:00,85.8,69.3,30.15,South,182,7.0,13.0,58,0.00,,,0.00,meteohub,2013-08-26 15:52:00,
2013-08-26 10:57:00,85.6,69.6,30.14,South,179,7.0,17.0,59,0.00,,,0.00,meteohub,2013-08-26 15:57:00,
2013-08-26 11:02:00,85.8,69.3,30.15,SSE,163,7.0,17.0,58,0.00,,,0.00,meteohub,2013-08-26 16:02:00,
2013-08-26 11:07:00,86.0,69.4,30.14,ESE,113,12.0,16.0,58,0.00,,,0.00,meteohub,2013-08-26 16:07:00,
2013-08-26 11:12:00,86.0,69.4,30.14,SE,142,5.0,16.0,58,0.00,,,0.00,meteohub,2013-08-26 16:12:00,
2013-08-26 11:17:00,86.5,68.9,30.14,SSE,164,6.0,16.0,56,0.00,,,0.00,meteohub,2013-08-26 16:17:00,
2013-08-26 11:22:00,87.3,69.6,30.14,SSE,155,8.0,16.0,56,0.00,,,0.00,meteohub,2013-08-26 16:22:00,
2013-08-26 11:27:00,87.4,69.3,30.14,SSE,158,7.0,13.0,55,0.00,,,0.00,meteohub,2013-08-26 16:27:00,
2013-08-26 11:32:00,87.6,69.4,30.14,SE,142,11.0,15.0,55,0.00,,,0.00,meteohub,2013-08-26 16:32:00,
2013-08-26 11:37:00,87.6,68.9,30.14,SSE,148,9.0,15.0,54,0.00,,,0.00,meteohub,2013-08-26 16:37:00,
2013-08-26 11:42:00,88.0,69.3,30.14,ESE,111,11.0,14.0,54,0.00,,,0.00,meteohub,2013-08-26 16:42:00,
2013-08-26 11:47:00,87.8,69.1,30.14,East,94,9.0,16.0,54,0.00,,,0.00,meteohub,2013-08-26 16:47:00,
2013-08-26 11:52:00,88.0,69.8,30.14,SSE,147,4.0,16.0,55,0.00,,,0.00,meteohub,2013-08-26 16:52:00,
2013-08-26 11:57:00,88.7,69.4,30.14,SSE,153,8.0,15.0,53,0.00,,,0.00,meteohub,2013-08-26 16:57:00,
2013-08-26 12:02:00,89.1,69.1,30.13,South,185,3.0,17.0,52,0.00,,,0.00,meteohub,2013-08-26 17:02:00,
2013-08-26 12:07:00,89.4,70.0,30.13,SE,141,7.0,17.0,53,0.00,,,0.00,meteohub,2013-08-26 17:07:00,
2013-08-26 12:12:00,89.4,68.9,30.13,SSE,160,10.0,17.0,51,0.00,,,0.00,meteohub,2013-08-26 17:12:00,
2013-08-26 12:17:00,89.4,68.9,30.12,SE,124,10.0,16.0,51,0.00,,,0.00,meteohub,2013-08-26 17:17:00,
2013-08-26 12:22:00,89.8,68.7,30.12,South,178,13.0,16.0,50,0.00,,,0.00,meteohub,2013-08-26 17:22:00,
2013-08-26 12:27:00,90.0,68.9,30.12,SE,138,7.0,17.0,50,0.00,,,0.00,meteohub,2013-08-26 17:27:00,
2013-08-26 12:32:00,90.3,68.5,30.12,SSE,147,8.0,17.0,49,0.00,,,0.00,meteohub,2013-08-26 17:32:00,
2013-08-26 12:38:00,91.0,69.3,30.12,SSE,157,10.0,17.0,49,0.00,,,0.00,meteohub,2013-08-26 17:38:00,
2013-08-26 12:43:00,90.9,69.1,30.12,SSE,153,12.0,18.0,49,0.00,,,0.00,meteohub,2013-08-26 17:43:00,
2013-08-26 12:49:00,90.9,67.8,30.12,SSE,150,12.0,18.0,47,0.00,,,0.00,meteohub,2013-08-26 17:49:00,
2013-08-26 12:54:00,90.5,68.2,30.11,ESE,123,7.0,18.0,48,0.00,,,0.00,meteohub,2013-08-26 17:54:00,
2013-08-26 13:00:00,90.9,68.5,30.11,SSE,150,14.0,17.0,48,0.00,,,0.00,meteohub,2013-08-26 18:00:00,
2013-08-26 13:05:00,91.8,68.0,30.11,SE,134,16.0,16.0,46,0.00,,,0.00,meteohub,2013-08-26 18:05:00,
2013-08-26 13:11:00,91.8,68.0,30.10,SE,139,12.0,19.0,46,0.00,,,0.00,meteohub,2013-08-26 18:11:00,
2013-08-26 13:16:00,91.8,68.0,30.10,SE,144,10.0,20.0,46,0.00,,,0.00,meteohub,2013-08-26 18:16:00,
2013-08-26 13:22:00,91.9,67.6,30.10,SE,145,9.0,20.0,45,0.00,,,0.00,meteohub,2013-08-26 18:22:00,
2013-08-26 13:27:00,92.3,68.5,30.10,SE,129,14.0,19.0,46,0.00,,,0.00,meteohub,2013-08-26 18:27:00,
2013-08-26 13:32:00,92.7,68.2,30.10,SSE,152,14.0,16.0,45,0.00,,,0.00,meteohub,2013-08-26 18:32:00,
2013-08-26 13:37:00,92.7,67.6,30.09,SE,145,11.0,18.0,44,0.00,,,0.00,meteohub,2013-08-26 18:37:00,
2013-08-26 13:42:00,92.8,67.1,30.09,SE,140,14.0,18.0,43,0.00,,,0.00,meteohub,2013-08-26 18:42:00,
2013-08-26 13:47:00,93.4,66.9,30.09,ESE,121,14.0,18.0,42,0.00,,,0.00,meteohub,2013-08-26 18:47:00,
2013-08-26 13:52:00,93.6,67.1,30.09,SE,126,8.0,17.0,42,0.00,,,0.00,meteohub,2013-08-26 18:52:00,
2013-08-26 13:57:00,93.0,67.3,30.08,SE,126,14.0,16.0,43,0.00,,,0.00,meteohub,2013-08-26 18:57:00,
2013-08-26 14:02:00,92.8,65.7,30.08,SE,137,12.0,16.0,41,0.00,,,0.00,meteohub,2013-08-26 19:02:00,
2013-08-26 14:07:00,93.4,64.8,30.08,SSE,154,14.0,21.0,39,0.00,,,0.00,meteohub,2013-08-26 19:07:00,
2013-08-26 14:12:00,93.6,64.2,30.08,SSE,163,9.0,23.0,38,0.00,,,0.00,meteohub,2013-08-26 19:12:00,
2013-08-26 14:17:00,93.6,64.2,30.07,SSE,162,13.0,23.0,38,0.00,,,0.00,meteohub,2013-08-26 19:17:00,
2013-08-26 14:22:00,93.7,62.8,30.07,SE,136,22.0,23.0,36,0.00,,,0.00,meteohub,2013-08-26 19:22:00,
2013-08-26 14:27:00,94.1,63.9,30.06,SSE,165,10.0,25.0,37,0.00,,,0.00,meteohub,2013-08-26 19:27:00,
2013-08-26 14:32:00,94.5,64.2,30.06,SSE,154,16.0,25.0,37,0.00,,,0.00,meteohub,2013-08-26 19:32:00,
2013-08-26 14:37:00,94.5,63.3,30.06,SE,135,14.0,22.0,36,0.00,,,0.00,meteohub,2013-08-26 19:37:00,
2013-08-26 14:42:00,94.3,62.4,30.06,SSE,166,5.0,20.0,35,0.00,,,0.00,meteohub,2013-08-26 19:42:00,
2013-08-26 14:47:00,94.6,62.8,30.06,South,181,8.0,20.0,35,0.00,,,0.00,meteohub,2013-08-26 19:47:00,
2013-08-26 14:52:00,94.8,64.4,30.06,ESE,115,8.0,20.0,37,0.00,,,0.00,meteohub,2013-08-26 19:52:00,
2013-08-26 14:57:00,94.8,63.7,30.05,ESE,107,13.0,17.0,36,0.00,,,0.00,meteohub,2013-08-26 19:57:00,
2013-08-26 15:02:00,95.0,63.9,30.05,South,182,8.0,19.0,36,0.00,,,0.00,meteohub,2013-08-26 20:02:00,
2013-08-26 15:07:00,95.0,63.9,30.05,SE,137,8.0,19.0,36,0.00,,,0.00,meteohub,2013-08-26 20:07:00,
2013-08-26 15:12:00,95.4,64.9,30.05,SE,129,6.0,18.0,37,0.00,,,0.00,meteohub,2013-08-26 20:12:00,
2013-08-26 15:17:00,95.2,63.1,30.05,ESE,111,13.0,18.0,35,0.00,,,0.00,meteohub,2013-08-26 20:17:00,
2013-08-26 15:22:00,95.2,63.1,30.04,ESE,113,15.0,20.0,35,0.00,,,0.00,meteohub,2013-08-26 20:22:00,
2013-08-26 15:27:00,95.4,64.9,30.04,SSE,148,9.0,20.0,37,0.00,,,0.00,meteohub,2013-08-26 20:27:00,
2013-08-26 15:32:00,95.0,63.9,30.04,SE,144,11.0,20.0,36,0.00,,,0.00,meteohub,2013-08-26 20:32:00,
2013-08-26 15:37:00,94.8,64.4,30.04,SSE,154,5.0,19.0,37,0.00,,,0.00,meteohub,2013-08-26 20:37:00,
2013-08-26 15:42:00,95.4,63.3,30.04,SSE,163,12.0,19.0,35,0.00,,,0.00,meteohub,2013-08-26 20:42:00,
2013-08-26 15:47:00,95.4,63.3,30.04,SSW,196,12.0,17.0,35,0.00,,,0.00,meteohub,2013-08-26 20:47:00,
2013-08-26 15:52:00,95.4,64.2,30.04,SE,132,11.0,17.0,36,0.00,,,0.00,meteohub,2013-08-26 20:52:00,
2013-08-26 15:57:00,95.0,63.9,30.03,SE,124,8.0,17.0,36,0.00,,,0.00,meteohub,2013-08-26 20:57:00,
2013-08-26 16:02:00,94.5,64.2,30.03,South,189,7.0,18.0,37,0.00,,,0.00,meteohub,2013-08-26 21:02:00,
2013-08-26 16:07:00,94.6,64.4,30.03,ESE,121,11.0,19.0,37,0.00,,,0.00,meteohub,2013-08-26 21:07:00,
2013-08-26 16:12:00,95.2,63.1,30.03,ESE,119,7.0,19.0,35,0.00,,,0.00,meteohub,2013-08-26 21:12:00,
2013-08-26 16:17:00,94.8,63.0,30.03,East,82,11.0,14.0,35,0.00,,,0.00,meteohub,2013-08-26 21:17:00,
2013-08-26 16:22:00,94.3,63.1,30.03,SE,128,8.0,23.0,36,0.00,,,0.00,meteohub,2013-08-26 21:22:00,
2013-08-26 16:27:00,94.5,63.3,30.03,ESE,114,7.0,23.0,36,0.00,,,0.00,meteohub,2013-08-26 21:27:00,
2013-08-26 16:32:00,95.2,62.4,30.03,SE,138,10.0,17.0,34,0.00,,,0.00,meteohub,2013-08-26 21:32:00,
2013-08-26 16:37:00,94.5,61.7,30.03,SSE,153,11.0,17.0,34,0.00,,,0.00,meteohub,2013-08-26 21:37:00,
2013-08-26 16:42:00,94.5,62.6,30.02,SE,145,14.0,17.0,35,0.00,,,0.00,meteohub,2013-08-26 21:42:00,
2013-08-26 16:47:00,94.8,62.1,30.02,SE,136,7.0,16.0,34,0.00,,,0.00,meteohub,2013-08-26 21:47:00,
2013-08-26 16:52:00,95.0,61.3,30.02,ESE,117,8.0,16.0,33,0.00,,,0.00,meteohub,2013-08-26 21:52:00,
2013-08-26 16:57:00,94.6,61.9,30.02,SE,138,12.0,16.0,34,0.00,,,0.00,meteohub,2013-08-26 21:57:00,
2013-08-26 17:02:00,94.6,62.8,30.02,SE,142,5.0,16.0,35,0.00,,,0.00,meteohub,2013-08-26 22:02:00,
2013-08-26 17:07:00,95.0,62.2,30.02,SE,140,9.0,13.0,34,0.00,,,0.00,meteohub,2013-08-26 22:07:00,
2013-08-26 17:12:00,94.8,61.2,30.02,SE,136,7.0,15.0,33,0.00,,,0.00,meteohub,2013-08-26 22:12:00,
2013-08-26 17:17:00,94.5,61.7,30.02,SSE,150,8.0,15.0,34,0.00,,,0.00,meteohub,2013-08-26 22:17:00,
2013-08-26 17:23:00,94.8,62.1,30.02,SE,124,7.0,15.0,34,0.00,,,0.00,meteohub,2013-08-26 22:23:00,
2013-08-26 17:28:00,95.2,62.4,30.02,South,174,10.0,15.0,34,0.00,,,0.00,meteohub,2013-08-26 22:28:00,
2013-08-26 17:34:00,94.8,62.1,30.02,SSE,150,14.0,15.0,34,0.00,,,0.00,meteohub,2013-08-26 22:34:00,
2013-08-26 17:39:00,94.6,61.9,30.02,SSE,153,9.0,20.0,34,0.00,,,0.00,meteohub,2013-08-26 22:39:00,
2013-08-26 17:45:00,94.6,61.9,30.02,SE,137,8.0,20.0,34,0.00,,,0.00,meteohub,2013-08-26 22:45:00,
2013-08-26 17:50:00,94.6,62.8,30.02,SSE,148,11.0,16.0,35,0.00,,,0.00,meteohub,2013-08-26 22:50:00,
2013-08-26 17:56:00,94.5,63.3,30.02,SSE,159,10.0,18.0,36,0.00,,,0.00,meteohub,2013-08-26 22:56:00,
2013-08-26 18:02:00,94.5,62.6,30.02,SE,140,9.0,18.0,35,0.00,,,0.00,meteohub,2013-08-26 23:02:00,
2013-08-26 18:07:00,94.3,62.4,30.02,SSE,158,9.0,18.0,35,0.00,,,0.00,meteohub,2013-08-26 23:07:00,
2013-08-26 18:12:00,93.7,64.2,30.02,SSE,151,13.0,16.0,38,0.00,,,0.00,meteohub,2013-08-26 23:12:00,
2013-08-26 18:17:00,93.4,64.0,30.02,SSE,148,12.0,20.0,38,0.00,,,0.00,meteohub,2013-08-26 23:17:00,
2013-08-26 18:22:00,93.2,63.9,30.02,South,185,8.0,20.0,38,0.00,,,0.00,meteohub,2013-08-26 23:22:00,
2013-08-26 18:27:00,92.8,63.5,30.02,SSE,148,3.0,20.0,38,0.00,,,0.00,meteohub,2013-08-26 23:27:00,
2013-08-26 18:32:00,92.8,63.5,30.02,SSE,162,8.0,17.0,38,0.00,,,0.00,meteohub,2013-08-26 23:32:00,
2013-08-26 18:37:00,93.0,63.7,30.02,SSE,168,4.0,13.0,38,0.00,,,0.00,meteohub,2013-08-26 23:37:00,
2013-08-26 18:42:00,93.0,64.4,30.02,SE,143,10.0,14.0,39,0.00,,,0.00,meteohub,2013-08-26 23:42:00,
2013-08-26 18:47:00,92.7,64.0,30.02,SSE,156,9.0,18.0,39,0.00,,,0.00,meteohub,2013-08-26 23:47:00,
2013-08-26 18:52:00,92.5,63.1,30.02,South,178,10.0,18.0,38,0.00,,,0.00,meteohub,2013-08-26 23:52:00,
2013-08-26 18:57:00,92.3,63.0,30.03,SSE,148,6.0,18.0,38,0.00,,,0.00,meteohub,2013-08-26 23:57:00,
2013-08-26 19:03:00,91.9,63.5,30.02,SSE,161,4.0,15.0,39,0.00,,,0.00,meteohub,2013-08-27 00:03:00,
2013-08-26 19:08:00,91.6,63.1,30.02,SSE,150,12.0,13.0,39,0.00,,,0.00,meteohub,2013-08-27 00:08:00,
2013-08-26 19:14:00,91.4,63.0,30.02,SSE,156,5.0,14.0,39,0.00,,,0.00,meteohub,2013-08-27 00:14:00,
2013-08-26 19:19:00,91.2,63.5,30.02,SE,146,7.0,14.0,40,0.00,,,0.00,meteohub,2013-08-27 00:19:00,
2013-08-26 19:25:00,91.0,63.3,30.02,ESE,123,9.0,14.0,40,0.00,,,0.00,meteohub,2013-08-27 00:25:00,
2013-08-26 19:31:00,91.0,63.3,30.02,SE,146,4.0,14.0,40,0.00,,,0.00,meteohub,2013-08-27 00:31:00,
2013-08-26 19:36:00,90.9,63.1,30.02,South,175,4.0,14.0,40,0.00,,,0.00,meteohub,2013-08-27 00:36:00,
2013-08-26 19:42:00,90.7,63.0,30.02,SSE,150,5.0,10.0,40,0.00,,,0.00,meteohub,2013-08-27 00:42:00,
2013-08-26 19:47:00,90.7,63.0,30.02,SSE,149,4.0,12.0,40,0.00,,,0.00,meteohub,2013-08-27 00:47:00,
2013-08-26 19:52:00,90.3,63.5,30.02,SSE,154,8.0,12.0,41,0.00,,,0.00,meteohub,2013-08-27 00:52:00,
2013-08-26 19:57:00,90.1,63.3,30.02,SSE,160,3.0,12.0,41,0.00,,,0.00,meteohub,2013-08-27 00:57:00,
2013-08-26 20:02:00,90.0,63.9,30.02,SSE,157,3.0,9.0,42,0.00,,,0.00,meteohub,2013-08-27 01:02:00,
2013-08-26 20:07:00,89.6,63.5,30.02,SSE,167,3.0,9.0,42,0.00,,,0.00,meteohub,2013-08-27 01:07:00,
2013-08-26 20:12:00,89.4,63.3,30.02,SSE,157,3.0,9.0,42,0.00,,,0.00,meteohub,2013-08-27 01:12:00,
2013-08-26 20:17:00,89.2,63.9,30.02,SSE,153,5.0,9.0,43,0.00,,,0.00,meteohub,2013-08-27 01:17:00,
2013-08-26 20:22:00,89.2,63.9,30.02,SSE,165,4.0,9.0,43,0.00,,,0.00,meteohub,2013-08-27 01:22:00,
2013-08-26 20:27:00,89.1,63.7,30.02,South,169,2.0,9.0,43,0.00,,,0.00,meteohub,2013-08-27 01:27:00,
2013-08-26 20:33:00,88.3,67.3,30.03,SSW,193,9.0,9.0,50,0.00,,,0.00,meteohub,2013-08-27 01:33:00,
2013-08-26 20:39:00,87.1,68.4,30.04,SSE,165,9.0,20.0,54,0.00,,,0.00,meteohub,2013-08-27 01:39:00,
2013-08-26 20:45:00,86.2,68.7,30.04,South,178,4.0,20.0,56,0.00,,,0.00,meteohub,2013-08-27 01:45:00,
2013-08-26 20:50:00,85.6,68.7,30.04,South,178,6.0,14.0,57,0.00,,,0.00,meteohub,2013-08-27 01:50:00,
2013-08-26 20:55:00,85.3,68.9,30.04,South,186,5.0,13.0,58,0.00,,,0.00,meteohub,2013-08-27 01:55:00,
2013-08-26 21:01:00,84.9,68.9,30.04,South,186,8.0,9.0,59,0.00,,,0.00,meteohub,2013-08-27 02:01:00,
2013-08-26 21:06:00,84.6,69.1,30.04,SSW,192,6.0,13.0,60,0.00,,,0.00,meteohub,2013-08-27 02:06:00,
2013-08-26 21:12:00,84.4,68.9,30.04,South,171,4.0,13.0,60,0.00,,,0.00,meteohub,2013-08-27 02:12:00,
2013-08-26 21:17:00,84.2,69.3,30.04,SSE,162,3.0,13.0,61,0.00,,,0.00,meteohub,2013-08-27 02:17:00,
2013-08-26 21:22:00,84.0,69.1,30.04,South,174,5.0,11.0,61,0.00,,,0.00,meteohub,2013-08-27 02:22:00,
2013-08-26 21:27:00,84.0,69.1,30.04,SSE,167,3.0,11.0,61,0.00,,,0.00,meteohub,2013-08-27 02:27:00,
2013-08-26 21:32:00,83.8,68.9,30.05,SSE,158,4.0,8.0,61,0.00,,,0.00,meteohub,2013-08-27 02:32:00,
2013-08-26 21:37:00,83.8,68.9,30.04,South,174,7.0,9.0,61,0.00,,,0.00,meteohub,2013-08-27 02:37:00,
2013-08-26 21:42:00,83.7,68.7,30.04,South,170,10.0,10.0,61,0.00,,,0.00,meteohub,2013-08-27 02:42:00,
2013-08-26 21:47:00,83.5,69.1,30.04,South,186,4.0,10.0,62,0.00,,,0.00,meteohub,2013-08-27 02:47:00,
2013-08-26 21:52:00,83.5,69.1,30.04,SSE,163,5.0,13.0,62,0.00,,,0.00,meteohub,2013-08-27 02:52:00,
2013-08-26 21:57:00,83.1,69.3,30.04,SSE,167,5.0,13.0,63,0.00,,,0.00,meteohub,2013-08-27 02:57:00,
2013-08-26 22:03:00,82.9,69.1,30.04,South,185,3.0,9.0,63,0.00,,,0.00,meteohub,2013-08-27 03:03:00,
2013-08-26 22:08:00,82.9,69.1,30.04,South,180,7.0,10.0,63,0.00,,,0.00,meteohub,2013-08-27 03:08:00,
2013-08-26 22:14:00,82.9,69.4,30.04,SSE,161,2.0,10.0,64,0.00,,,0.00,meteohub,2013-08-27 03:14:00,
2013-08-26 22:19:00,82.8,69.3,30.04,South,181,5.0,8.0,64,0.00,,,0.00,meteohub,2013-08-27 03:19:00,
2013-08-26 22:25:00,82.8,69.3,30.04,SSW,196,2.0,6.0,64,0.00,,,0.00,meteohub,2013-08-27 03:25:00,
2013-08-26 22:31:00,82.6,69.1,30.05,South,182,3.0,6.0,64,0.00,,,0.00,meteohub,2013-08-27 03:31:00,
2013-08-26 22:37:00,82.4,69.4,30.05,South,182,5.0,6.0,65,0.00,,,0.00,meteohub,2013-08-27 03:37:00,
2013-08-26 22:42:00,82.2,69.3,30.05,South,179,2.0,6.0,65,0.00,,,0.00,meteohub,2013-08-27 03:42:00,
2013-08-26 22:47:00,82.0,69.6,30.05,South,177,6.0,9.0,66,0.00,,,0.00,meteohub,2013-08-27 03:47:00,
2013-08-26 22:52:00,81.9,69.4,30.05,South,171,8.0,9.0,66,0.00,,,0.00,meteohub,2013-08-27 03:52:00,
2013-08-26 22:57:00,81.7,69.3,30.05,SSW,196,5.0,11.0,66,0.00,,,0.00,meteohub,2013-08-27 03:57:00,
2013-08-26 23:02:00,81.7,69.3,30.05,South,189,2.0,11.0,66,0.00,,,0.00,meteohub,2013-08-27 04:02:00,
2013-08-26 23:03:00,81.5,69.1,30.05,South,176,8.0,11.0,66,0.00,,,0.00,meteohub,2013-08-27 04:03:00,
2013-08-26 23:04:00,81.5,69.1,30.05,SSW,197,7.0,11.0,66,0.00,,,0.00,meteohub,2013-08-27 04:04:00,
2013-08-26 23:10:00,81.1,68.7,30.05,SSE,160,2.0,11.0,66,0.00,,,0.00,meteohub,2013-08-27 04:10:00,
2013-08-26 23:16:00,81.0,68.9,30.05,South,181,6.0,11.0,67,0.00,,,0.00,meteohub,2013-08-27 04:16:00,
2013-08-26 23:21:00,80.8,68.7,30.06,South,182,5.0,11.0,67,0.00,,,0.00,meteohub,2013-08-27 04:21:00,
2013-08-26 23:27:00,80.6,69.1,30.05,South,177,3.0,11.0,68,0.00,,,0.00,meteohub,2013-08-27 04:27:00,
2013-08-26 23:32:00,80.4,69.3,30.05,SW,226,5.0,11.0,69,0.00,,,0.00,meteohub,2013-08-27 04:32:00,
2013-08-26 23:37:00,80.2,69.1,30.05,South,190,4.0,9.0,69,0.00,,,0.00,meteohub,2013-08-27 04:37:00,
2013-08-26 23:42:00,80.1,69.4,30.05,South,189,2.0,9.0,70,0.00,,,0.00,meteohub,2013-08-27 04:42:00,
2013-08-26 23:47:00,79.9,69.3,30.05,SSE,168,3.0,8.0,70,0.00,,,0.00,meteohub,2013-08-27 04:47:00,
2013-08-26 23:52:00,79.9,69.3,30.05,South,169,1.0,5.0,70,0.00,,,0.00,meteohub,2013-08-27 04:52:00,
2013-08-26 23:57:00,79.5,69.3,30.05,South,178,7.0,8.0,71,0.00,,,0.00,meteohub,2013-08-27 04:57:00,